SL-16 DEB, 44574

Orbit data source: Space-Track

SL-16 DEB, 44574 is space debris in LEO originally from a launch on Fri, 25 Dec 1992 UTC launched from the Tyuratam Missile And Space Complex (TTMTR). Debris objects in space refer to the collection of defunct objects orbiting the Earth. Examples of debris include non-operational satellites, rocket bodies, and fragments generated from explosions, collisions, or faulty payload assembly.

Loading next visibility...
Identifier
44574, 1992-093LW
Orbit
LEO
Country
Flag of CISCIS
Related business
Manufacturer
Unknown
Mission
Spacecraft
Bus & Motor
Unknown
Mass
Unknown
Launch date (UTC)
1992-12-25 (33 years ago)
Launch vehicle
Unknown
Launch site
Tyuratam Missile And Space Complex (TTMTR)
Object type
Payload
Rocket body
Debris
Shape & HBR
Unknown shape, 0.1 m
Radar Cross Section
Small (<0.1 m²)

Expand to show TLE details & history
Last TLE update: 10 hours ago

TLE from 10 hours ago
0 SL-16 DEB
1 44574U 92093LW  25303.25291843  .00016860  00000-0  42538-2 0  9999
2 44574  71.1187 237.5705 0085584  12.4083 111.2215 14.48891675621395
Epoch: 2025-10-30T06:04Z
TLE epoch observation values (Epoch: 2025-10-30T06:04:12.152Z)
Latitude
51.31788°
Longitude
-97.43856°
Altitude
759.479 km
Speed
7.468 km/s
True Right ascension
02h 09m 42s
True Declination
51° 09' 00"
Sunlit
Object was in full shadow at epoch
Visualization orbit readout
Latitude
Unknown
Longitude
Unknown
Altitude
Unknown
Speed
Unknown
Apparent Right ascension
Unknown
Apparent Declination
Unknown
Sunlit
N/A
Visualization observer readout
Local Sidereal Time
11:52:28
Azimuth
Unknown
Elevation
Unknown
Doppler factor
Unknown
Orbital elements
Apogee altitude
787.96 km
Perigee altitude
666.341 km
Semi-major axis
7,105.287 km
Eccentricity
0.00856
Inclination
71.1187°
RAAN
237.5705°
Arg. of periapsis
12.4083°
True anomaly
112.13215°
Mean anomaly
111.2215°
Eccentric anomaly
111.67718°
Mean motion
3.62385 °/min
Orbital period
99.34 mins
BSTAR
0.0042538
Loading maneuver chart data...
Computing Atmospheric mass density...
Loading historical data...
Loading historical data...
Loading historical data...
Loading historical data...
Loading historical data...
Loading historical data...
Loading historical data...

Documentation

Showing up to 5 results
|